Weather History for Marshall, TX

Change the Weather History Date:

Thursday, March 21, 2013

  Actual Average (KGGG) Record (KGGG)
Temperature  
Mean Temperature 50 °F 59 °F  
Max Temperature 57 °F 70 °F 87 °F (1907)
Min Temperature 44 °F 47 °F 25 °F (1965)
Degree Days  
Heating Degree Days 14 7  
Month to date heating degree days 192  
Since 1 July heating degree days 2096  
Cooling Degree Days 0 1  
Month to date cooling degree days 21  
Year to date cooling degree days 33  
Moisture  
Dew Point 34 °F    
Average Humidity 54    
Maximum Humidity 81    
Minimum Humidity 38    
Precipitation  
Precipitation 0.03 in 0.15 in 2.27 in (1955)
Month to date precipitation 2.96  
Year to date precipitation 10.32  
Snow  
Snow 0.00 in - - ()
Month to date snowfall  
Since 1 July snowfall  
Snow Depth -    
Sea Level Pressure  
Sea Level Pressure 29.92 in    
Wind  
Wind Speed 4 mph (East)    
Max Wind Speed 12 mph    
Max Gust Speed 22 mph    
Visibility 10 miles    
Events      
T = Trace of Precipitation, MM = Missing Value Source: NWS Daily Summary

Daily Weather History Graph

Daily Weather History Graph

Search for Another Location

Airport:

Trip Planner

Search our weather history database for the weather conditions in past years. The results will help you decide how hot, cold, wet, or windy it might be!

Date:

Astronomy

Mar. 21, 2013 Rise Set
Actual Time 7:19 AM CDT 7:29 PM CDT
Civil Twilight 6:54 AM CDT 7:54 PM CDT
Nautical Twilight 6:26 AM CDT 8:22 PM CDT
Astronomical Twilight 5:57 AM CDT 8:51 PM CDT
Moon 2:15 PM CDT (3/21) 3:25 AM CDT (3/21)
Length of Visible Light 12h 59m
Length of Day
12h 10m
Waxing Gibbous, 69% of the Moon is Illuminated
Mar 21
Waxing Gibbous
Mar 27
Full
Apr 2
Last Quarter
Apr 10
New
Apr 18
First Quarter

Hourly Weather History & Observations

Time (CDT) Temp. Windchill Dew Point Humidity Pressure Visibility Wind Dir Wind Speed Gust Speed Precip Events Conditions
12:15 AM 44.6 °F - 37.4 °F 76% 30.09 in 10.0 mi Calm Calm - N/A   Clear
12:35 AM 44.6 °F - 37.4 °F 76% 30.08 in 10.0 mi Calm Calm - N/A   Clear
12:55 AM 44.6 °F - 37.4 °F 76% 30.07 in 10.0 mi Calm Calm - N/A   Clear
1:15 AM 46.4 °F 45.2 °F 33.8 °F 62% 30.06 in 10.0 mi NE 3.5 mph - N/A   Clear
1:35 AM 50.0 °F - 32.0 °F 50% 30.06 in 10.0 mi Calm Calm - N/A   Clear
1:55 AM 50.0 °F - 30.2 °F 47% 30.06 in 10.0 mi NE 3.5 mph - N/A   Clear
2:15 AM 50.0 °F - 28.4 °F 43% 30.06 in 10.0 mi NE 3.5 mph - N/A   Clear
2:35 AM 50.0 °F - 30.2 °F 47% 30.06 in 10.0 mi NE 4.6 mph - N/A   Clear
2:55 AM 50.0 °F - 30.2 °F 47% 30.07 in 10.0 mi Calm Calm - N/A   Clear
3:15 AM 46.4 °F 45.2 °F 30.2 °F 53% 30.07 in 10.0 mi NE 3.5 mph - N/A   Clear
3:35 AM 46.4 °F 45.2 °F 30.2 °F 53% 30.05 in 10.0 mi North 3.5 mph - N/A   Clear
3:55 AM 46.4 °F - 30.2 °F 53% 30.05 in 10.0 mi Calm Calm - N/A   Clear
4:15 AM 46.4 °F - 32.0 °F 57% 30.05 in 10.0 mi Calm Calm - N/A   Clear
4:55 AM 46.4 °F 43.5 °F 32.0 °F 57% 30.04 in 10.0 mi ENE 5.8 mph - N/A   Clear
5:15 AM 46.4 °F 42.9 °F 30.2 °F 53% 30.03 in 10.0 mi ENE 6.9 mph - N/A   Clear
5:35 AM 46.4 °F 44.3 °F 30.2 °F 53% 30.03 in 10.0 mi East 4.6 mph - N/A   Clear
5:55 AM 44.6 °F 42.2 °F 30.2 °F 57% 30.02 in 10.0 mi ENE 4.6 mph - N/A   Clear
6:15 AM 44.6 °F 42.2 °F 32.0 °F 61% 30.03 in 10.0 mi East 4.6 mph - N/A   Clear
6:35 AM 44.6 °F 41.4 °F 32.0 °F 61% 30.02 in 10.0 mi ENE 5.8 mph - N/A   Clear
6:55 AM 44.6 °F 41.4 °F 32.0 °F 61% 30.01 in 10.0 mi ENE 5.8 mph - N/A   Clear
7:15 AM 44.6 °F 42.2 °F 32.0 °F 61% 30.03 in 10.0 mi East 4.6 mph - N/A   Clear
7:35 AM 44.6 °F 42.2 °F 32.0 °F 61% 30.03 in 10.0 mi ENE 4.6 mph - N/A   Scattered Clouds
7:55 AM 44.6 °F 43.1 °F 32.0 °F 61% 30.03 in 10.0 mi ENE 3.5 mph - N/A   Scattered Clouds
8:15 AM 46.4 °F 45.2 °F 32.0 °F 57% 30.03 in 10.0 mi East 3.5 mph - N/A   Scattered Clouds
8:35 AM 46.4 °F 43.5 °F 32.0 °F 57% 30.03 in 10.0 mi East 5.8 mph - N/A   Scattered Clouds
8:55 AM 46.4 °F 42.4 °F 32.0 °F 57% 30.02 in 10.0 mi East 8.1 mph - N/A   Scattered Clouds
9:15 AM 46.4 °F 44.3 °F 32.0 °F 57% 30.03 in 10.0 mi ESE 4.6 mph - N/A   Clear
9:35 AM 46.4 °F 43.5 °F 32.0 °F 57% 30.03 in 10.0 mi ESE 5.8 mph - N/A   Clear
9:55 AM 48.2 °F - 32.0 °F 54% 30.02 in 10.0 mi ESE 3.5 mph - N/A   Clear
10:15 AM 50.0 °F - 32.0 °F 50% 30.02 in 10.0 mi ESE 8.1 mph - N/A   Scattered Clouds
10:35 AM 50.0 °F - 32.0 °F 50% 30.01 in 10.0 mi ESE 8.1 mph - N/A   Clear
10:55 AM 50.0 °F - 32.0 °F 50% 30.02 in 10.0 mi SE 5.8 mph - N/A   Scattered Clouds
11:15 AM 50.0 °F - 33.8 °F 54% 30.02 in 10.0 mi ESE 3.5 mph - N/A   Scattered Clouds
11:35 AM 46.4 °F 44.3 °F 37.4 °F 71% 30.01 in 10.0 mi East 4.6 mph - N/A   Mostly Cloudy
11:55 AM 46.4 °F - 37.4 °F 71% 30.00 in 10.0 mi Calm Calm - N/A   Mostly Cloudy
12:15 PM 46.4 °F 44.3 °F 37.4 °F 71% 29.98 in 10.0 mi East 4.6 mph - N/A   Scattered Clouds
12:35 PM 46.4 °F 45.2 °F 41.0 °F 81% 29.96 in 10.0 mi ENE 3.5 mph - 0.03 in   Mostly Cloudy
12:55 PM 50.0 °F - 39.2 °F 66% 29.95 in 10.0 mi East 6.9 mph - 0.03 in   Mostly Cloudy
1:15 PM 50.0 °F - 35.6 °F 58% 29.93 in 10.0 mi East 11.5 mph 16.1 mph N/A   Mostly Cloudy
1:35 PM 51.8 °F - 33.8 °F 50% 29.91 in 10.0 mi ESE 10.4 mph 19.6 mph N/A   Scattered Clouds
1:55 PM 51.8 °F - 33.8 °F 50% 29.90 in 10.0 mi East 10.4 mph 16.1 mph N/A   Mostly Cloudy
2:15 PM 53.6 °F - 33.8 °F 47% 29.88 in 10.0 mi ESE 8.1 mph 16.1 mph N/A   Mostly Cloudy
2:35 PM 55.4 °F - 33.8 °F 44% 29.86 in 10.0 mi East 11.5 mph 16.1 mph N/A   Scattered Clouds
2:55 PM 55.4 °F - 32.0 °F 41% 29.85 in 10.0 mi ESE 5.8 mph - N/A   Mostly Cloudy
3:15 PM 55.4 °F - 32.0 °F 41% 29.83 in 10.0 mi ESE 8.1 mph 18.4 mph N/A   Scattered Clouds
3:35 PM 57.2 °F - 32.0 °F 38% 29.82 in 10.0 mi East 11.5 mph 21.9 mph N/A   Scattered Clouds
3:55 PM 57.2 °F - 32.0 °F 38% 29.80 in 10.0 mi ESE 8.1 mph 18.4 mph N/A   Clear
4:15 PM 57.2 °F - 32.0 °F 38% 29.80 in 10.0 mi ESE 11.5 mph 19.6 mph N/A   Clear
4:35 PM 57.2 °F - 33.8 °F 41% 29.79 in 10.0 mi ESE 6.9 mph 16.1 mph N/A   Clear
4:55 PM 57.2 °F - 33.8 °F 41% 29.78 in 10.0 mi East 11.5 mph 17.3 mph N/A   Clear
5:15 PM 57.2 °F - 33.8 °F 41% 29.77 in 10.0 mi East 11.5 mph - N/A   Scattered Clouds
5:35 PM 55.4 °F - 33.8 °F 44% 29.77 in 10.0 mi East 8.1 mph - N/A   Mostly Cloudy
5:55 PM 55.4 °F - 33.8 °F 44% 29.75 in 10.0 mi East 6.9 mph - N/A   Mostly Cloudy
6:15 PM 55.4 °F - 35.6 °F 47% 29.75 in 10.0 mi East 9.2 mph - N/A   Mostly Cloudy
6:35 PM 55.4 °F - 35.6 °F 47% 29.75 in 10.0 mi ENE 4.6 mph - N/A   Mostly Cloudy
6:55 PM 55.4 °F - 35.6 °F 47% 29.74 in 10.0 mi East 9.2 mph - N/A   Mostly Cloudy
7:15 PM 55.4 °F - 35.6 °F 47% 29.75 in 10.0 mi ENE 4.6 mph - N/A   Mostly Cloudy
7:35 PM 55.4 °F - 35.6 °F 47% 29.76 in 10.0 mi East 9.2 mph - N/A   Overcast
7:55 PM 55.4 °F - 35.6 °F 47% 29.75 in 10.0 mi ENE 5.8 mph - N/A   Mostly Cloudy
8:15 PM 55.4 °F - 37.4 °F 51% 29.77 in 10.0 mi East 3.5 mph - N/A   Mostly Cloudy
8:35 PM 55.4 °F - 37.4 °F 51% 29.76 in 10.0 mi East 6.9 mph - N/A   Mostly Cloudy
8:55 PM 55.4 °F - 37.4 °F 51% 29.77 in 10.0 mi East 5.8 mph - N/A   Mostly Cloudy
9:15 PM 55.4 °F - 37.4 °F 51% 29.78 in 10.0 mi East 5.8 mph - N/A   Overcast
9:35 PM 55.4 °F - 37.4 °F 51% 29.76 in 10.0 mi East 5.8 mph - N/A   Overcast
9:55 PM 55.4 °F - 37.4 °F 51% 29.75 in 10.0 mi East 6.9 mph - N/A   Overcast
10:15 PM 55.4 °F - 37.4 °F 51% 29.75 in 10.0 mi ESE 4.6 mph - N/A   Overcast
10:35 PM 55.4 °F - 37.4 °F 51% 29.75 in 10.0 mi East 5.8 mph - N/A   Overcast
10:55 PM 55.4 °F - 39.2 °F 54% 29.74 in 10.0 mi East 5.8 mph - N/A   Overcast
11:15 PM 55.4 °F - 39.2 °F 54% 29.74 in 10.0 mi Calm Calm - N/A   Overcast
11:35 PM 55.4 °F - 41.0 °F 58% 29.73 in 10.0 mi East 3.5 mph - N/A   Overcast
11:55 PM 55.4 °F - 41.0 °F 58% 29.73 in 10.0 mi ENE 3.5 mph - N/A   Overcast